Weather History for Sussex, NJ

Change the Weather History Date:

Thursday, September 12, 2013

  Actual Average Record
Temperature  
Mean Temperature 73 °F -  
Max Temperature 82 °F 76 °F 97 °F (1983)
Min Temperature 64 °F 46 °F 32 °F (1967)
Cooling Degree Days 8    
Growing Degree Days 23 (Base 50)    
Moisture  
Dew Point 69 °F    
Average Humidity 90    
Maximum Humidity 100    
Minimum Humidity 74    
Precipitation  
Precipitation 0.51 in - - ()
Sea Level Pressure  
Sea Level Pressure 29.81 in    
Wind  
Wind Speed 3 mph (SW)    
Max Wind Speed 12 mph    
Max Gust Speed 22 mph    
Visibility 5 miles    
Events Rain , Thunderstorm    
Averages and records for this station are not official NWS values.
T = Trace of Precipitation, MM = Missing Value Source: NWS Daily Summary

Daily Weather History Graph

Daily Weather History Graph

Search for Another Location

Airport:

Trip Planner

Search our weather history database for the weather conditions in past years. The results will help you decide how hot, cold, wet, or windy it might be!

Date:

Astronomy

Sep. 12, 2013 Rise Set
Actual Time 6:36 AM EDT 7:12 PM EDT
Civil Twilight 6:08 AM EDT 7:40 PM EDT
Nautical Twilight 5:35 AM EDT 8:12 PM EDT
Astronomical Twilight 5:01 AM EDT 8:46 PM EDT
Moon 2:05 PM EDT (9/12) No Moon Set
Length of Visible Light 13h 31m
Length of Day
12h 36m
Waxing Crescent, 50% of the Moon is Illuminated
Sep 12
Waxing Crescent
Sep 12
First Quarter
Sep 19
Full
Sep 26
Last Quarter
Oct 4
New

Hourly Weather History & Observations

Time (EDT) Temp. Heat Index Dew Point Humidity Pressure Visibility Wind Dir Wind Speed Gust Speed Precip Events Conditions
12:53 AM 68.0 °F - 66.9 °F 96% 29.97 in 9.0 mi Calm Calm - N/A   Clear
1:53 AM 68.0 °F - 66.9 °F 96% 29.96 in 8.0 mi Calm Calm - N/A   Clear
2:53 AM 66.9 °F - 66.0 °F 97% 29.95 in 7.0 mi Calm Calm - N/A   Clear
3:53 AM 66.0 °F - 66.0 °F 100% 29.94 in 5.0 mi Calm Calm - N/A   Clear
4:53 AM 66.9 °F - 66.0 °F 97% 29.94 in 6.0 mi Calm Calm - N/A   Overcast
5:24 AM 66.2 °F - 66.2 °F 100% 29.94 in 7.0 mi Calm Calm - N/A Thunderstorm Thunderstorm
5:53 AM 66.9 °F - 66.0 °F 97% 29.93 in 7.0 mi Calm Calm - N/A   Clear
6:53 AM 66.9 °F - 66.0 °F 97% 29.93 in 5.0 mi Calm Calm - N/A   Mostly Cloudy
7:53 AM 68.0 °F - 68.0 °F 100% 29.92 in 6.0 mi SW 3.5 mph - N/A   Scattered Clouds
8:53 AM 72.0 °F - 69.1 °F 91% 29.91 in 5.0 mi Calm Calm - N/A   Mostly Cloudy
9:53 AM 75.0 °F - 71.1 °F 87% 29.89 in 5.0 mi SSW 6.9 mph - N/A   Partly Cloudy
10:16 AM 75.2 °F - 71.6 °F 89% 29.90 in 5.0 mi Variable 5.8 mph - N/A   Haze
10:37 AM 77.0 °F - 71.6 °F 83% 29.89 in 5.0 mi South 5.8 mph - N/A   Haze
10:53 AM 78.1 °F - 72.0 °F 81% 29.87 in 5.0 mi Variable 6.9 mph - N/A   Haze
11:53 AM 78.1 °F - 73.0 °F 84% 29.86 in 6.0 mi South 9.2 mph - N/A   Haze
12:53 PM 79.0 °F - 72.0 °F 79% 29.84 in 7.0 mi SSW 10.4 mph - 0.00 in   Clear
1:53 PM 78.1 °F - 72.0 °F 81% 29.81 in 8.0 mi Variable 5.8 mph 16.1 mph N/A   Partly Cloudy
2:27 PM 80.6 °F 85.4 °F 73.4 °F 79% 29.80 in 7.0 mi Variable 5.8 mph - N/A   Mostly Cloudy
2:53 PM 79.0 °F - 73.0 °F 82% 29.78 in 6.0 mi SSW 5.8 mph - N/A   Haze
3:17 PM 80.6 °F 85.4 °F 73.4 °F 79% 29.77 in 6.0 mi SSW 6.9 mph - N/A   Haze
3:39 PM 80.6 °F 84.6 °F 71.6 °F 74% 29.76 in 6.0 mi SW 6.9 mph - N/A   Haze
3:53 PM 82.0 °F 87.4 °F 73.0 °F 74% 29.75 in 6.0 mi Variable 6.9 mph - N/A   Haze
4:09 PM 80.6 °F 85.4 °F 73.4 °F 79% 29.75 in 6.0 mi SW 6.9 mph - N/A   Haze
4:19 PM 78.8 °F - 73.4 °F 83% 29.75 in 4.0 mi WSW 8.1 mph - 0.00 in Rain , Thunderstorm Light Rain
4:26 PM 77.0 °F - 71.6 °F 83% 29.74 in 1.8 mi WSW 8.1 mph - 0.03 in Rain , Thunderstorm Thunderstorms and Rain
4:35 PM 73.4 °F - 71.6 °F 94% 29.75 in 1.0 mi WSW 8.1 mph - 0.10 in Rain , Thunderstorm Heavy Thunderstorms and Rain
4:53 PM 73.0 °F - 70.0 °F 90% 29.73 in 2.5 mi Calm Calm - 0.16 in Rain , Thunderstorm Light Thunderstorms and Rain
5:00 PM 73.4 °F - 71.6 °F 94% 29.73 in 5.0 mi Calm Calm - 0.00 in Rain , Thunderstorm Light Thunderstorms and Rain
5:29 PM 73.4 °F - 71.6 °F 94% 29.72 in 6.0 mi Calm Calm - 0.00 in   Partly Cloudy
5:53 PM 73.9 °F - 72.0 °F 93% 29.70 in 5.0 mi Calm Calm - 0.00 in   Clear
6:28 PM 73.4 °F - 71.6 °F 94% 29.71 in 4.0 mi Calm Calm - N/A Thunderstorm Mostly Cloudy
6:51 PM 69.8 °F - 66.2 °F 88% 29.78 in 1.8 mi SW 11.5 mph 21.9 mph 0.16 in Rain , Thunderstorm Heavy Thunderstorms and Rain
6:53 PM 68.0 °F - 66.0 °F 93% 29.78 in 1.5 mi SW 10.4 mph 21.9 mph 0.19 in Rain , Thunderstorm Heavy Thunderstorms and Rain
7:10 PM 68.0 °F - 64.4 °F 88% 29.75 in 3.0 mi Variable 4.6 mph - 0.10 in Rain , Thunderstorm Light Thunderstorms and Rain
7:53 PM 66.0 °F - 66.0 °F 100% 29.71 in 5.0 mi Calm Calm - 0.14 in Rain Light Rain
8:53 PM 66.0 °F - 66.0 °F 100% 29.74 in 8.0 mi Calm Calm - 0.00 in   Clear
9:53 PM 66.0 °F - 64.9 °F 96% 29.74 in 6.0 mi Calm Calm - N/A   Clear
10:08 PM 66.2 °F - 64.4 °F 94% 29.74 in 6.0 mi Calm Calm - N/A   Partly Cloudy
10:53 PM 64.9 °F - 64.9 °F 100% 29.73 in 6.0 mi Calm Calm - N/A   Mostly Cloudy
11:53 PM 66.0 °F - 66.0 °F 100% 29.73 in 6.0 mi SW 3.5 mph - 0.02 in Rain Light Rain